[ hide orbit diagram ]
For accurate long-term ephemerides, please instead use our Horizons system.This orbit viewer was implemented using two-body methods, and hence should not be used for determining accurate long-term trajectories (over several years or decades) or planetary encounter circumstances.
Orbital Elements at Epoch 2459000.5 (2020-May-31.0) TDB
Reference: JPL 17 (heliocentric ecliptic J2000)
Element | Value | Uncertainty (1-sigma) | Units |
e | .02910229860656682 | 5.6222e-08 | |
a | 2.696820832117764 | 2.2516e-08 | au |
q | 2.618337146973063 | 1.4199e-07 | au |
i | 5.419521413172133 | 4.7586e-06 | deg |
node | 293.4293304542838 | 6.5483e-05 | deg |
peri | 225.1836039136407 | 0.00012621 | deg |
M | 62.27863671250437 | 0.00010552 | deg |
tp | 2458720.657826785362 (2019-Aug-25.15782679) | 0.00047433 | TDB |
period | 1617.620225412583 4.43 | 2.0258e-05 5.546e-08 | d yr |
n | .2225491461743933 | 2.7871e-09 | deg/d |
Q | 2.775304517262465 | 2.3171e-08 | au |
|
| | Orbit Determination Parameters
Additional Information
|
[ show covariance matrix ]
Physical Parameter Table
Parameter |
Symbol |
Value |
Units |
Sigma |
Reference |
Notes |
absolute magnitude |
H |
16.1 |
|
n/a |
MPO423066 |
|
|
277692 (2006 CL19) Discovered 2006-Feb-01 by Mt. Lemmon Survey at Mount Lemmon |
Reference: 20110517/Numbers.arc | Last Updated: 2011-05-20 |
|
[ hide close-approach data ]
Close-Approach Data ...sorted by Date/Time (TDB)
|
Date/Time (TDB) |
Time Uncertainty (days_HH:MM) |
Body |
Nominal Distance (au) |
Minimum Distance (au) |
Maximum Distance (au) |
V-relative (km/s) |
V-infinity (km/s) |
JD (TDB) |
Time Uncertainty (minutes) |
Semi-major axis (km) |
Semi-minor axis (km) |
range-LOV angle (deg) |
N-sigma |
BP |
Orbit Ref. |
Reference |
Modified |
1934-Nov-25 06:18 |
< 00:01 |
David |
0.0267411776822722 |
0.0267095525670772 |
0.0267728162172937 |
7.46249282403479 |
7.46249274833083 |
2427766.762779451 |
0.724247383597547 |
1838.48228628908 |
59.4118097630946 |
-30.9525851742183 |
34670.5664611161 |
T |
17 |
CATAB v2.0f-lin.ifort 2020-Nov-11 21:16:29 |
2020-Nov-11 21:16 |
1948-Nov-25 16:44 |
00:07 |
Iris |
0.0465335560350625 |
0.0465241102194161 |
0.0465430151488246 |
4.07673686165595 |
4.07673683135235 |
2432881.197185517 |
7.05824373127727 |
1343.21612403184 |
79.4335394987058 |
-69.7327231678863 |
82186.9507655955 |
T |
17 |
CATAB v2.0f-lin.ifort 2020-Nov-11 21:16:29 |
2020-Nov-11 21:16 |
|
|